www.pogodaiklimat.ru

Погода и климат >> Архив погоды >> Эстония >> Vilsandi


ПОГОДА в Vilsandi

  • Прогноз погоды в Vilsandi
  • Монитор погоды в Vilsandi
  • Климат города

АРХИВ ПОГОДЫ в Vilsandi

Время (UTC), дата Ветер
(напр.,м/с)
 
Видим.   Явления Облачность Т
(С)
Тd
(С)
f
(%)
Тe
(С)
Тes
(С)
Комфортность P
(гПа)
Po
(гПа)
Тmin
(С)
Tmax
(С)
R
(мм)
R24
(мм)
S
(см)
01 11.10 Ю 1 20 км н/о +10.6 +10.3 98 +10 +10 1028.9 1028.2
02 11.10 ЮВ 2 7000 м н/о +9.5 +9.2 98 +8 +8 1029.1 1028.4
03 11.10 ЮВ 2 11 км 10/9 630 м
[Sc]
+10.2 +10.0 99 +9 +9 1029.3 1028.6 +8.9 +13.2
04 11.10 ЮВ 2 20 км н/о +10.9 +10.6 98 +9 +9 1029.5 1028.8
05 11.10 ЮВ 2 20 км н/о +11.1 +10.7 97 +10 +10 1029.7 1028.9
06 11.10 ЮВ 2 20 км 10// 300 м
[Sc]
+11.4 +10.8 96 +10 +10 1030.0 1029.3 +8.9 +13.0
07 11.10 ЮВ 3 20 км н/о +11.5 +10.7 95 +10 +10 1030.4 1029.7
08 11.10 н/о
09 11.10 ЮВ 3 20 км 10/9 400 м
[Sc]
+12.2 +11.0 92 +11 +11 1030.8 1030.1 +8.9 +12.3
10 11.10 ЮВ 3 20 км н/о +12.4 +11.0 91 +11 +11 1030.8 1030.1
11 11.10 ЮВ 3 20 км н/о +13.2 +11.3 88 +12 +12 1030.4 1029.7
12 11.10 20 км н/о +14.2 +10.8 80 +13 +14 1030.2 1029.5
13 11.10 ЮВ 5 20 км н/о +13.8 +10.7 82 +12 +12 1029.9 1029.2
14 11.10 ЮВ 4 20 км н/о +13.5 +10.8 84 +12 +12 1029.6 1028.9
15 11.10 ЮВ 6 20 км 1/1 500 м
[Sc]
+12.5 +10.4 87 +10 +10 1029.3 1028.6 +10.2 +14.3
16 11.10 ЮВ 6 20 км н/о +11.6 +10.1 91 +9 +9 1029.2 1028.5
17 11.10 ЮВ 5 20 км н/о +10.9 +9.8 93 +8 +8 1029.3 1028.6
18 11.10 ЮВ 4 20 км ясно +10.6 +9.8 95 +8 +8 1029.1 1028.4 +10.5 +14.3
19 11.10 ЮВ 5 19 км н/о +10.6 +9.9 95 +8 +8 1029.1 1028.4
20 11.10 ЮВ 5 20 км н/о +10.9 +10.2 95 +8 +8 1029.1 1028.3
21 11.10 ЮВ 5 17 км 1/0
[Ci fib]
+11.0 +10.3 95 +8 +8 1028.9 1028.2 +10.5 +14.3
22 11.10 ЮВ 5 20 км н/о +11.0 +10.3 95 +8 +8 1028.9 1028.2
23 11.10 ЮВ 4 20 км н/о +10.9 +10.1 95 +8 +8 1028.8 1028.1
00 12.10 н/о +10.7 +9.9 95 1028.3 1027.6
01 12.10 ЮВ 4 15 км н/о +9.9 +9.3 96 +7 +7 1028.3 1027.6
02 12.10 ЮВ 5 18 км н/о +10.2 +9.4 95 +7 +7 1027.8 1027.1
03 12.10 ЮВ 5 20 км 1/0
[Ci fib]
+10.4 +9.4 94 +7 +7 1027.6 1026.9 +9.7 +12.5
04 12.10 ЮВ 4 18 км н/о +9.8 +8.8 93 +7 +7 1027.8 1027.1
05 12.10 ЮВ 4 14 км н/о +9.7 +8.9 95 +7 +7 1027.5 1026.8
06 12.10 ЮВ 5 17 км 8/0
[Ac trans]
+10.7 +9.5 92 +8 +8 1027.3 1026.5 +9.7 +11.2
07 12.10 ЮВ 5 19 км н/о +11.9 +9.9 88 +9 +9 1027.5 1026.8
08 12.10 н/о
09 12.10 Ю 4 20 км 3/0
[Ac trans]
+13.6 +10.5 82 +12 +13 1027.6 1026.9 +9.7 +13.6
10 12.10 Ю 5 20 км н/о +14.1 +10.5 79 +12 +12 1027.5 1026.8
11 12.10 Ю 4 20 км н/о +14.6 +10.5 76 +13 +13 1027.4 1026.7
12 12.10 Ю 4 20 км н/о +15.0 +10.6 75 +14 +14 1027.2 1026.5
13 12.10 Ю 4 20 км н/о +15.4 +10.6 73 +14 +14 1027.2 1026.5
14 12.10 Ю 4 20 км н/о +15.1 +11.1 77 +14 +14 1026.6 1025.9
15 12.10 ЮВ 4 20 км 4/0
[Ci fib]
+15.0 +11.0 77 +14 +14 1026.2 1025.5 +9.7 +15.6
16 12.10 Ю 3 20 км н/о +12.9 +10.8 87 +11 +11 1026.1 1025.4
17 12.10 Ю 4 20 км н/о +12.9 +10.9 88 +11 +11 1026.0 1025.3
18 12.10 Ю 3 17 км н/о +12.3 +10.6 89 +11 +11 1026.3 1025.6 +10.7 +15.6
19 12.10 Ю 4 16 км н/о +12.8 +11.2 90 +11 +11 1025.9 1025.2
20 12.10 Ю 4 14 км н/о +12.9 +11.5 91 +11 +11 1026.3 1025.6
21 12.10 Ю 5 16 км ясно +13.4 +11.9 91 +11 +11 1025.9 1025.2 +11.8 +15.6
22 12.10 Ю 7 17 км н/о +13.7 +11.8 88 +11 +11 1025.7 1025.0
23 12.10 Ю 5 15 км н/о +13.3 +11.8 91 +11 +11 1025.5 1024.8
00 13.10 Ю 5 14 км н/о +13.2 +11.9 92 +11 +11 1025.4 1024.7
01 13.10 Ю 6 12 км н/о +13.2 +12.0 92 +11 +11 1024.7 1024.0
02 13.10 Ю 4 9000 м н/о +13.0 +12.0 94 +11 +11 1025.2 1024.5
03 13.10 Ю 4
{9}
7000 м дымка 3/0
[Ac trans]
+12.8 +12.0 95 +11 +11 1025.3 1024.6 +11.8 +15.2
04 13.10 Ю 5 6000 м н/о +12.9 +12.1 95 +11 +11 1024.9 1024.2
05 13.10 Ю 5 5000 м н/о +12.8 +12.1 96 +10 +10 1024.8 1024.1
06 13.10 Ю 5 4500 м н/о +12.9 +12.1 95 +11 +11 1025.2 1024.5 +11.8 +13.8
07 13.10 Ю 4 4900 м н/о +13.7 +12.6 93 +12 +12 1025.7 1025.0
08 13.10 н/о
09 13.10 Ю 7-9
{9}
н/о дымка 10/0
[Ci]
+14.1 +12.6 91 +12 +12 1026.0 1025.3 +12.7 +14.2
10 13.10 Ю 6 4400 м н/о +13.9 +12.6 92 +12 +12 1026.1 1025.4
11 13.10 Ю 5 4500 м н/о +14.0 +12.7 92 +12 +12 1026.0 1025.3
12 13.10 Ю 6 5000 м н/о +14.3 +12.7 90 +12 +12 1026.0 1025.3
13 13.10 Ю 5 4400 м н/о +13.9 +12.6 92 +12 +12 1025.7 1025.0
14 13.10 Ю 6 3800 м н/о +13.7 +12.7 94 +11 +11 1025.5 1024.8
15 13.10 Ю 6-8
{8}
3300 м дымка 10/0
[Ci]
+13.3 +12.6 96 +11 +11 1025.3 1024.6 +12.7 +14.5
16 13.10 Ю 4 3300 м н/о +13.0 +12.4 96 +11 +11 1025.7 1025.0
17 13.10 Ю 4 2800 м н/о +12.8 +12.3 97 +11 +11 1025.8 1025.1
18 13.10 Ю 5 2900 м н/о +12.9 +12.4 97 +11 +11 1025.6 1024.9 +12.7 +14.5
19 13.10 Ю 8 3200 м н/о +13.1 +12.5 96 +10 +10 1025.4 1024.7
20 13.10 Ю 8 4400 м н/о +13.2 +12.4 95 +10 +10 1025.3 1024.6
21 13.10 Ю 8-9
{10}
5000 м дымка ясно +13.2 +12.2 94 +10 +10 1025.4 1024.7 +12.7 +14.5
22 13.10 Ю 7 5000 м н/о +13.3 +12.1 92 +11 +11 1025.4 1024.7
23 13.10 Ю 6 5000 м н/о +13.1 +12.1 94 +11 +11 1025.3 1024.6
00 14.10 Ю 6 5000 м н/о +13.2 +12.1 93 +11 +11 1025.1 1024.4
01 14.10 Ю 6 6000 м н/о +13.2 +12.3 94 +11 +11 1024.8 1024.1
02 14.10 Ю 6 5000 м н/о +13.0 +12.3 96 +10 +10 1024.6 1023.9
03 14.10 Ю 5 4600 м дымка ясно +12.9 +12.2 96 +11 +11 1024.5 1023.8 +12.7 +13.4
04 14.10 Ю 6 4300 м н/о +12.9 +12.3 96 +10 +10 1024.3 1023.6
05 14.10 Ю 4 3400 м н/о +12.6 +12.1 97 +11 +11 1024.1 1023.4
06 14.10 Ю 6 4600 м дымка 4/0
[Cs]
+13.1 +12.4 96 +11 +11 1024.1 1023.4 +12.5 +13.4
07 14.10 Ю 4 5000 м н/о +13.3 +12.2 93 +12 +12 1024.2 1023.5
08 14.10 Ю 5 7000 м н/о +13.8 +12.3 91 +12 +12 1024.1 1023.4
09 14.10 Ю 4
{9}
8000 м дымка 3/0
[Cs]
+13.9 +12.2 89 +12 +14 1024.2 1023.5 +12.5 +14.0
10 14.10 Ю 4 9000 м н/о +14.2 +12.3 88 +13 +13 1023.9 1023.2
11 14.10 Ю 5 10 км н/о +14.4 +12.1 86 +13 +13 1023.8 1023.1
12 14.10 Ю 6 13 км н/о +15.2 +11.7 80 +14 +14 1023.4 1022.7
13 14.10 Ю 5 12 км н/о +14.8 +11.9 83 +13 +13 1022.9 1022.2
14 14.10 Ю 5 13 км н/о +14.5 +11.9 84 +13 +13 1022.5 1021.8
15 14.10 Ю 5
{8}
16 км 3/0
[Cs]
+13.9 +11.8 87 +12 +12 1022.3 1021.6 +12.5 +15.3
16 14.10 Ю 4 17 км н/о +13.6 +11.5 87 +12 +12 1021.8 1021.1
17 14.10 Ю 4 17 км н/о +13.5 +11.5 88 +12 +12 1021.3 1020.6
18 14.10 Ю 5 20 км н/о +13.7 +11.0 84 +12 +12 1020.8 1020.1 +13.0 +15.3
19 14.10 Ю 6 20 км н/о +14.8 +11.0 78 +13 +13 1020.7 1020.0
20 14.10 Ю 7 20 км н/о +14.2 +11.0 81 +12 +12 1020.4 1019.7
21 14.10 Ю 6-8
{9}
20 км ясно +13.7 +10.8 83 +12 +12 1020.2 1019.5 +13.1 +15.3
22 14.10 Ю 5 20 км н/о +12.8 +10.5 86 +11 +11 1020.1 1019.4
23 14.10 Ю 5 20 км н/о +13.0 +10.5 85 +11 +11 1019.9 1019.2
00 15.10 Ю 6 20 км н/о +13.3 +10.3 82 +11 +11 1019.6 1018.9
01 15.10 Ю 8 20 км н/о +13.4 +10.5 83 +11 +11 1019.5 1018.8
02 15.10 Ю 9 20 км н/о +13.5 +10.5 82 +11 +11 1019.2 1018.5
03 15.10 Ю 8-10
{11}
20 км ясно +13.5 +10.5 82 +11 +11 1019.2 1018.5 +12.7 +14.8
04 15.10 Ю 8 20 км н/о +13.2 +10.8 85 +10 +10 1019.0 1018.3
05 15.10 Ю 8 20 км н/о +13.0 +11.0 88 +10 +10 1018.9 1018.2
06 15.10 Ю 7 20 км н/о +13.2 +11.0 87 +11 +11 1019.1 1018.4 +12.7 +14.8
07 15.10 Ю 8 20 км н/о +13.6 +11.2 85 +11 +11 1019.3 1018.6
08 15.10 Ю 7 20 км н/о +14.0 +11.4 84 +12 +12 1019.4 1018.7
09 15.10 Ю 6-8
{10}
20 км 3/0
[Cs]
+14.0 +11.6 85 +12 +13 1019.7 1019.0 +12.7 +14.2
10 15.10 Ю 6 19 км н/о +14.0 +11.7 86 +12 +12 1019.7 1019.0
11 15.10 Ю 5 20 км н/о +14.3 +11.6 84 +13 +13 1019.7 1019.0
12 15.10 Ю 5 20 км н/о +14.3 +11.3 82 +13 +13 1019.4 1018.7
13 15.10 Ю 5 20 км н/о +14.1 +11.1 82 +12 +12 1019.1 1018.4
14 15.10 ЮЗ 8 20 км н/о +14.4 +10.7 78 +12 +12 1018.7 1018.0
15 15.10 Ю 6
{12}
20 км 3/0
[Cs]
+13.5 +11.0 85 +11 +11 1018.8 1018.1 +12.9 +14.6
16 15.10 Ю 7 17 км н/о +13.4 +11.2 87 +11 +11 1018.7 1018.0
17 15.10 Ю 7 19 км н/о +13.7 +10.9 83 +11 +11 1018.6 1017.9
18 15.10 Ю 6 20 км н/о +13.9 +10.3 79 +12 +12 1018.4 1017.7 +13.2 +14.6
19 15.10 Ю 6 20 км н/о +13.5 +10.9 84 +11 +11 1018.2 1017.5
20 15.10 Ю 3 14 км н/о +12.0 +10.9 93 +10 +10 1018.5 1017.8
21 15.10 Ю 4
{10}
20 км 3/0
[Cs]
+13.1 +10.6 85 +11 +11 1018.1 1017.4 +11.8 +14.6
22 15.10 Ю 6 20 км н/о +12.9 +11.4 91 +10 +10 1017.9 1017.2
23 15.10 Ю 5 20 км н/о +13.2 +11.5 89 +11 +11 1017.7 1017.0
00 16.10 Ю 6 18 км н/о +13.3 +11.5 89 +11 +11 1017.3 1016.6
01 16.10 ЮЗ 7 16 км н/о +13.2 +11.7 91 +11 +11 1016.9 1016.3
02 16.10 ЮЗ 7 14 км н/о +13.2 +11.7 91 +11 +11 1017.0 1016.3
03 16.10 ЮЗ 7-9
{9}
12 км 3/0
[Cs]
+13.1 +11.7 91 +10 +10 1017.0 1016.3 +11.8 +14.2
04 16.10 Ю 5 9000 м н/о +12.8 +11.6 92 +11 +11 1016.9 1016.2
05 16.10 Ю 4 8000 м н/о +12.6 +11.6 94 +11 +11 1016.9 1016.2
06 16.10 Ю 5 8000 м н/о +12.8 +11.7 93 +11 +11 1017.1 1016.4 +11.8 +14.2
07 16.10 Ю 6 9000 м н/о +13.3 +11.9 91 +11 +11 1017.6 1016.9
08 16.10 н/о
09 16.10 Ю 4
{8}
10 км дымка 3/0
[Cs]
+14.3 +12.3 88 +13 +14 1018.5 1017.8 +12.6 +14.4
10 16.10 Ю 4 10 км н/о +14.3 +12.2 87 +13 +13 1018.9 1018.2
11 16.10 н/о
12 16.10 н/о +13.8 +12.2 90 1019.1 1018.4
13 16.10 Ю 4 8000 м н/о +13.8 +12.0 89 +12 +12 1019.3 1018.6
14 16.10 Ю 5 6000 м н/о +13.2 +12.0 92 +11 +11 1019.3 1018.6
15 16.10 Ю 4 5000 м дымка 3/0
[Ac trans Cs]
+12.6 +11.9 95 +11 +11 1019.4 1018.7 +12.6 +14.6
16 16.10 ЮЗ 3 4500 м н/о +12.6 +12.0 96 +11 +11 1020.0 1019.3
17 16.10 ЮЗ 2 3900 м н/о +12.3 +11.7 96 +11 +11 1020.0 1019.3
18 16.10 ЮЗ 3 2500 м н/о +12.3 +11.8 97 +11 +11 1020.1 1019.4 +12.2 +15.0
19 16.10 ЮЗ 2 1800 м н/о +12.1 +11.7 97 +11 +11 1020.2 1019.5
20 16.10 Ю 2 1000 м н/о +11.8 +11.5 98 +11 +11 1020.5 1019.8
21 16.10 Ю 2 1300 м дымка 3/0 120 м
[Cs]
+11.7 +11.5 99 +10 +10 1020.6 1019.9 +11.6 +14.6
22 16.10 ЮЗ 4 2300 м н/о +12.1 +11.9 99 +10 +10 1020.5 1019.8
23 16.10 ЮЗ 3 2900 м н/о +12.1 +11.7 97 +10 +10 1020.2 1019.5
00 17.10 Ю 2 1500 м н/о +12.1 +11.7 97 +11 +11 1020.0 1019.3
01 17.10 Ю 2 200 м н/о +11.7 +11.4 98 +10 +10 1020.0 1019.3
02 17.10 Ю 3 1100 м н/о +12.1 +11.9 99 +10 +10 1019.9 1019.2
03 17.10 Ю 3 900 м туман {ливн. осадки} 1/1 60 м
[]
+11.9 +11.7 99 +10 +10 1019.8 1019.1 +11.1 +12.7
04 17.10 ЮВ 4 100 м н/о +11.4 +11.2 99 +9 +9 1019.6 1018.9
05 17.10 Ю 4 200 м н/о +12.2 +12.1 99 +10 +10 1019.9 1019.2
06 17.10 Ю 4 1000 м н/о +11.9 +11.8 99 +10 +10 1020.0 1019.3 +11.1 +12.3
07 17.10 Ю 3 2200 м н/о +12.4 +12.2 99 +11 +11 1020.2 1019.5
08 17.10 н/о
09 17.10 Ю 5 7000 м дымка {туман} 6/6 150 м
[St]
+13.4 +12.6 95 +11 +12 1020.5 1019.8 +11.1 +13.5 0.2
10 17.10 Ю 7 4900 м н/о +12.8 +12.0 95 +10 +10 1020.3 1019.6
11 17.10 Ю 5 4100 м н/о +13.2 +12.2 94 +11 +11 1020.1 1019.4
12 17.10 Ю 5 6000 м н/о +13.5 +12.1 91 +11 +11 1019.9 1019.2
13 17.10 Ю 4 6000 м н/о +13.5 +12.0 91 +12 +12 1019.8 1019.1
14 17.10 Ю 5 9000 м н/о +13.4 +11.5 88 +11 +11 1019.8 1019.1
15 17.10 Ю 5 8000 м дымка 3/0
[Cs]
+12.8 +11.5 92 +11 +11 1019.9 1019.2 +11.3 +13.7
16 17.10 Ю 5 6000 м н/о +12.7 +11.5 92 +10 +10 1019.9 1019.2
17 17.10 Ю 4 4300 м н/о +12.5 +11.7 95 +10 +10 1019.8 1019.1
18 17.10 Ю 5 3600 м дымка ясно +12.6 +11.8 95 +10 +10 1019.8 1019.1 +11.9 +13.7
19 17.10 Ю 5 2900 м н/о +12.6 +12.0 96 +10 +10 1019.8 1019.1
20 17.10 Ю 5 4000 м н/о +12.7 +11.9 95 +10 +10 1019.7 1019.0
21 17.10 Ю 5-8
{8}
4000 м дымка ясно +12.6 +11.8 95 +10 +10 1019.3 1018.6 +12.3 +13.7
22 17.10 Ю 6 3700 м н/о +12.6 +11.7 94 +10 +10 1019.0 1018.3
23 17.10 ЮЗ 5 3700 м н/о +12.5 +11.6 94 +10 +10 1019.2 1018.5

 

Местоположение метеостанции Vilsandi (Эстония): широта 58.38 долгота 21.82 высота над уровнем моря 6 м.

В архиве по умолчанию представлена погода в Vilsandi за последнюю неделю. Архивные данные за месяц целиком и за предыдущие месяцы, начиная с января 2011 года, Вы можете получить, выбрав интересующий диапазон дат из раскрывающегося списка и нажав кнопку "Ввод!".


*Определитесь, кто Вы:
робот инопланетянин человек

Внимание! Время в таблицах - всемирное. Для получения местного времени необходимо прибавить поправку, которая в Vilsandi равна 2 ч.

Смотрите также архив погоды в соседних городах и на ближайших метеорологических станциях:

Погода в S?rve (Эстония) (53 км)
Погода в Ristna (Эстония) (62 км)
Погода в Kolka (Латвия) (84 км)
Погода в Virtsu (Эстония) (101 км)
Погода в Ruhnu Saar (Эстония) (104 км)
Погода в Ventspils (Латвия) (110 км)
Погода в Kihnu (Эстония) (130 км)
Погода в Nigula (Эстония) (132 км)
Погода в M?rsrags (Латвия) (138 км)
Погода в Stende (Латвия) (140 км)

Пояснения к столбцам:

Ветер - указаны скорость ветра в м/с - средняя за 10 мин, порывы в срок и между сроками (в фигурных скобках) и направление, откуда дует ветер: С - северный, СВ - северо-восточный, В - восточный, ЮВ - юго-восточный, Ю - южный, ЮЗ - юго-западный, З - западный, СЗ - северо-западный.
Видимость - горизонтальная дальность видимости в метрах или километрах. При видимости от 1 до 10 км при отсутствии осадков обычно наблюдается дымка, при ухудшении видимости до 1 км и менее - туман. В сухую погоду видимость может ухудшаться дымом, пылью или мглою.
Явления - указаны атмосферные явления, наблюдавшиеся в срок или в последний час перед сроком; фигурными скобками обозначены явления, наблюдавшиеся между сроками (за 1-3 часа до срока); квадратными скобками обозначены град или гололедные отложения с указанием их диаметра в мм.
Облачность - указаны через наклонную черту общая и нижняя облачность в баллах и высота нижней границы облаков в метрах; квадратными скобками обозначены формы облаков: Ci - перистые, Cs - перисто-слоистые, Cc - перисто-кучевые, Ac - высококучевые, As - высокослоистые, Sc - слоисто-кучевые, Ns - слоисто-дождевые, Cu - кучевые, Cb - кучево-дождевые. Подробнее классификацию облаков см. в Атласе облаков (PDF).
T - Температура воздуха - температура, измеренная на высоте 2 м над землей.
Td - Температура точки росы - температура, при понижении до которой содержащийся в воздухе водяной пар достигнет насыщения.
f - Относительная влажность воздуха - влажноcть воздуха, измеренная на высоте 2 м над землей.
Te - Эффективная температура - температура, которую ощущает одетый по сезону человек в тени. Характеристика душности погоды. При расчете учитывается влияние влажности воздуха и скорости ветра на теплоощущения человека.
Tes - Эффективная температура на солнце - температура, которую ощущает человек, с поправкой на солнечный нагрев. Характеристика знойности погоды. Зависит от высоты солнца над горизонтом, облачности и скорости ветра. Ночью, в пасмурную погоду, а также при ветре 12 м/с и более поправка равна нулю.
P - Атмосферное давление - приведенное к уровню моря атмосферное давление.
Po - Атмосферное давление - измеренное на уровне метеостанции атмосферное давление.
Tmin - Минимальная температура - минимум температуры воздуха на высоте 2 м над землей.
Tmax - Максимальная температура - максимум температуры воздуха на высоте 2 м над землей.
R - Количество осадков - Количество выпавших осадков за период времени, мм. При наведении курсора мыши на число - период времени, за который выпало указанное количество осадков.
R24 - Количество осадков - Количество выпавших осадков за 24 часа, мм.
S - Снежный покров - Высота снежного покрова, см. При наведении курсора мыши на число - состояние снежного покрова и степень покрытия местности в баллах.